User: anonymous   Login
Location: Rochester
(43.1610°N, 77.6109°W)
Time: 21:17:17
(UTC-04:00)
Language:

CAS-4A - Orbit

View from above orbital plane
View from above orbital plane
View from above satellite
View from above satellite

Ground track
Ground track

The orbit data is extracted from the following two-line orbital elements,

1 42761U 17034D   21293.79467765  .00001038  00000-0  75047-4 0  9992
2 42761  43.0176 210.8536 0009079 237.5585 172.3481 15.10546138240105
Epoch (UTC): 20 October 2021 19:04:20
Eccentricity: 0.0009079
inclination: 43.0176°
perigee height: 528 km
apogee height: 541 km
right ascension of ascending node: 210.8536°
argument of perigee: 237.5585°
revolutions per day: 15.10546138
mean anomaly at epoch: 172.3481°
orbit number at epoch: 24010

The dashed part of the orbit path shows where the satellite is in the earth's shadow,  

DLR